Location: Unspecified
(0.0000°N, 0.0000°E)
Time: 08:44:03
(UTC+00:00)

Explorer 11/Cluster Stage 4 - Pass Details

Date: 26 September 2023
Orbit: 465 x 1227 km, 28.8° (Epoch: 02 December)

Event Time Altitude Azimuth Distance (km) Brightness Sun altitude
Exits shadow 03:00:40 15° 67° (ENE) 2,093 9.2 -42.7°
Drops below altitude 10° 03:01:45 10° 76° (ENE) 2,345 9.6 -42.4°
Sets 03:04:28 0° 90° (E) 3,135 10.5 -41.8°
